Vorticity
18 15 13 11 11 10 10 10 11 12 12 13 14 15 15 14 13 13 13 13 14 15 17 17 15 13 9 7 5 5 7 13 18 21 23 22 21 19 17 14 12 10 8 3 -1 -2 -1 4 9 13 14 15 15 15 15 14 13 12 11 11 10 9 8 8 7 7 6 7 7
17 14 12 11 10 10 10 11 12 13 13 14 15 15 14 14 13 12 13 14 15 16 17 16 13 10 8 7 5 6 9 15 19 20 20 19 19 18 16 14 13 11 9 6 1 -1 -1 4 9 13 15 15 16 16 15 14 13 12 11 11 10 9 9 8 8 7 7 7 7
15 13 11 11 11 11 11 12 13 14 15 15 15 15 14 13 12 12 12 14 16 16 16 13 10 8 7 7 5 7 11 18 20 20 18 15 16 17 16 15 13 12 10 7 1 -2 -1 4 10 13 15 16 16 16 15 14 13 12 12 11 10 10 9 9 8 8 7 8 7
13 12 11 11 11 12 13 14 15 16 16 16 15 14 13 13 11 11 13 16 16 15 12 9 7 6 6 6 6 9 14 22 23 19 14 10 14 16 16 14 13 13 11 6 -1 -3 -2 4 10 13 15 16 16 15 14 13 12 12 11 11 10 10 9 9 8 8 8 8 8
12 12 12 12 13 14 15 16 16 16 17 16 15 14 13 13 12 13 15 17 16 12 8 5 6 6 6 6 8 14 21 27 25 18 9 6 10 13 13 12 10 10 9 4 -3 -4 -2 5 10 14 16 16 16 15 13 12 12 11 11 10 10 10 10 9 9 8 8 8 8
13 13 13 14 15 16 16 16 16 16 16 15 14 14 14 14 14 15 16 16 12 8 5 5 6 6 7 8 13 19 26 31 23 12 4 3 7 8 8 6 7 7 5 0 -5 -5 -1 6 11 14 16 16 16 14 13 12 11 11 10 10 10 10 9 9 9 8 8 8 8
14 15 16 16 17 17 17 16 16 16 16 15 14 14 15 16 16 15 13 10 7 5 5 6 6 7 9 13 19 23 25 26 14 4 -1 2 5 5 4 2 6 5 2 -4 -7 -5 1 8 13 14 15 15 15 14 13 12 11 11 10 10 10 10 9 9 9 8 8 8 8
15 16 16 17 17 16 16 16 16 16 16 15 15 15 15 15 14 11 7 5 4 5 6 7 7 9 13 18 22 22 20 14 5 -0 -1 2 6 7 6 5 5 2 -3 -8 -9 -4 4 11 14 15 14 14 14 13 12 12 11 11 10 10 9 9 9 9 9 9 9 8 9
12 13 15 16 15 15 15 15 16 16 17 17 16 15 14 12 9 6 4 3 5 6 7 6 9 11 15 20 23 20 14 7 2 0 1 3 6 10 11 9 4 -2 -7 -11 -7 0 8 14 14 14 13 13 13 13 12 11 11 10 10 10 9 9 9 9 9 9 9 9 10
13 14 15 15 14 14 15 16 16 17 18 17 16 14 11 8 5 4 3 5 7 7 6 7 10 13 16 23 23 16 9 5 4 4 3 2 6 11 12 8 0 -6 -9 -9 -1 6 13 15 14 14 13 13 13 12 12 11 10 10 10 9 9 9 9 9 9 9 10 10 11
15 16 17 16 16 16 17 18 18 18 17 15 12 9 7 5 5 5 6 8 6 5 5 9 11 14 19 26 20 13 6 6 6 6 6 7 11 12 10 4 -4 -9 -8 -2 6 12 14 14 14 15 15 14 14 13 12 11 10 10 9 9 9 9 9 9 9 10 11 11 12
18 20 19 17 17 18 18 18 18 16 14 11 7 6 5 6 6 7 7 6 4 4 7 11 13 15 18 23 18 12 6 5 5 7 10 15 18 16 10 1 -6 -7 -2 6 12 14 14 14 16 16 17 16 15 13 12 11 10 9 9 9 9 9 9 10 10 11 12 12 12
20 23 22 18 18 18 17 16 14 12 9 6 5 5 6 7 7 7 5 2 3 7 12 17 12 8 8 16 15 11 6 5 7 11 15 18 21 18 11 -0 -4 -1 5 12 13 13 14 15 16 17 17 16 15 13 12 11 10 10 9 9 9 10 10 11 12 13 13 12 11
22 25 25 18 17 16 14 13 11 9 7 6 6 7 7 8 7 5 3 2 6 12 18 24 7 -2 -2 8 9 8 7 8 12 14 14 14 17 15 9 1 2 5 10 12 12 13 14 15 16 16 15 14 13 12 11 11 10 10 10 10 10 11 12 13 13 13 12 11 10
23 24 22 16 15 14 12 11 9 8 7 6 6 6 7 8 6 5 3 4 11 18 23 21 4 -3 -2 3 4 5 7 10 11 10 8 9 10 9 6 4 6 8 10 11 12 13 13 14 14 14 13 12 12 11 11 11 10 10 10 11 12 12 13 13 13 13 11 10 10
25 25 22 17 14 12 11 10 11 9 6 3 2 3 5 8 8 7 6 8 14 19 18 10 5 4 5 3 2 4 6 9 4 1 2 5 5 5 4 5 7 9 10 10 12 12 13 13 13 12 12 11 11 11 11 11 11 11 11 12 13 13 14 14 13 12 11 10 10
26 27 24 19 13 11 10 12 11 5 -0 -2 -0 3 8 11 11 11 11 13 17 16 10 2 8 10 10 7 6 8 10 7 -4 -6 -3 2 3 4 4 6 7 8 10 11 12 13 13 12 12 12 11 11 11 11 12 12 12 12 13 14 14 14 13 13 12 11 10 10 10
22 23 22 18 11 10 11 13 5 -4 -7 1 6 10 13 15 15 15 15 16 17 12 7 6 11 12 11 10 11 14 13 1 -10 -9 -3 2 3 4 5 6 8 9 11 12 13 13 13 12 12 12 12 12 12 13 13 13 13 14 14 14 14 13 13 13 12 11 10 9 8
19 18 16 15 11 11 11 9 -4 -10 -5 10 16 18 17 17 17 16 15 15 14 12 9 9 10 10 10 11 15 16 9 -10 -12 -7 0 4 4 5 6 7 9 11 13 14 14 14 13 13 12 12 13 13 13 14 14 15 15 15 14 14 13 13 13 12 11 10 9 8 6
18 16 14 16 15 12 8 2 -9 -9 1 16 22 22 19 15 14 13 11 11 13 12 11 7 8 8 9 11 16 9 -3 -16 -9 -2 3 5 5 6 7 10 12 13 15 15 15 15 14 13 13 14 14 14 15 15 15 15 14 14 13 13 13 12 12 11 10 8 7 6 4
17 16 16 18 16 11 4 -3 -8 -4 5 18 23 20 13 8 9 9 8 10 13 13 10 7 7 8 10 14 12 -0 -12 -13 -5 1 4 6 7 9 11 13 15 16 17 17 16 16 15 15 15 15 15 15 15 15 14 13 13 13 13 12 12 11 10 9 7 6 5 4 3
16 15 15 16 12 7 2 -3 -2 3 11 19 16 10 5 7 13 14 13 13 13 12 10 8 7 9 13 16 4 -7 -12 -7 -2 2 5 7 10 13 16 18 18 19 18 18 17 16 16 15 15 15 15 15 14 13 13 12 12 12 12 12 11 10 8 7 6 5 4 3 2
14 13 12 11 8 5 3 3 6 10 13 13 6 6 10 19 22 20 16 13 11 10 8 7 8 13 16 12 -4 -10 -9 -3 1 4 8 12 15 18 20 21 20 20 18 18 17 16 16 15 15 14 14 13 12 11 11 11 11 11 11 10 9 8 7 6 5 4 3 2 2
12 10 9 9 7 6 7 8 10 12 12 9 10 16 22 23 21 18 13 9 7 6 6 8 14 18 15 0 -9 -10 -6 -1 4 9 13 17 20 22 22 22 20 19 18 17 16 15 15 14 14 13 13 12 11 11 11 11 11 10 10 8 7 6 5 4 3 2 2 1 1
11 10 9 8 8 8 6 1 5 12 16 15 19 21 20 17 16 14 10 6 6 9 14 20 23 16 3 -11 -11 -7 -1 5 11 16 19 22 23 22 22 20 19 18 17 16 15 14 14 13 13 12 11 11 11 11 11 11 10 10 9 8 6 5 3 2 2 1 1 1 0
11 10 10 10 10 6 -1 -7 11 22 24 18 15 15 16 17 16 13 10 11 18 24 27 26 13 -0 -11 -13 -7 -0 6 13 18 22 23 23 22 21 19 18 17 16 15 14 14 13 13 12 12 11 11 11 11 11 11 10 10 9 8 7 6 4 2 0 -0 -0 -0 -0 -0
11 12 12 13 10 -0 -5 10 29 31 22 9 6 10 17 20 16 14 16 24 29 26 17 4 -7 -12 -10 -4 3 10 16 21 23 24 23 21 20 18 17 16 15 14 14 13 13 12 12 12 11 11 11 11 11 10 10 9 8 8 7 5 4 3 2 1 -1 -2 -2 -1 -1
13 14 14 14 9 2 7 34 35 26 13 4 6 12 17 18 14 15 19 24 16 4 -7 -14 -12 -6 0 7 13 19 23 25 24 22 20 18 16 15 14 13 13 12 12 12 12 11 11 11 10 10 10 10 10 10 9 8 7 6 5 4 3 2 2 1 -0 -1 -1 -1 -0
13 14 14 13 12 16 23 34 26 16 10 10 12 15 16 15 12 13 12 6 -6 -13 -16 -11 -3 4 11 17 21 23 24 23 21 18 16 15 13 11 10 11 11 11 11 10 10 10 9 9 9 9 9 9 8 8 8 8 7 5 4 3 2 2 1 0 0 0 0 1 1
8 9 12 15 21 25 24 19 11 7 8 13 16 17 16 13 11 7 1 -9 -16 -15 -8 2 9 15 20 22 23 22 20 18 16 15 14 12 9 7 7 8 9 9 9 9 8 8 8 8 8 7 7 7 7 7 7 7 6 5 4 3 2 2 1 1 1 1 1 2 2
6 9 14 20 24 19 10 4 6 8 12 16 20 19 15 9 3 -3 -10 -17 -13 -5 5 13 19 22 24 22 21 19 16 12 11 11 11 10 7 5 5 7 8 7 7 7 7 7 7 6 6 6 6 6 6 6 6 6 5 5 4 3 2 2 2 2 2 2 2 2 3
14 16 18 17 10 2 0 9 23 28 28 28 22 13 3 -5 -8 -11 -12 -8 1 9 17 23 24 24 22 19 17 15 12 10 9 9 9 9 7 7 7 7 7 7 7 7 7 7 6 6 6 6 6 6 6 6 5 5 4 4 4 3 3 3 3 2 3 3 3 4 5
26 21 14 5 -2 0 13 34 42 41 34 24 8 -5 -14 -15 -11 -6 0 8 15 19 22 23 22 20 18 15 13 12 10 9 8 8 7 7 7 7 7 7 7 7 7 7 7 7 7 7 6 6 6 6 6 6 5 5 4 4 4 3 3 3 4 4 4 5 5 6 7
29 22 15 10 12 21 30 34 28 20 9 -4 -13 -18 -18 -11 0 9 17 23 20 16 13 13 15 15 14 10 9 8 9 9 8 7 7 7 7 7 7 7 7 7 7 7 7 7 7 7 7 6 6 6 6 6 5 5 5 4 4 4 4 4 5 5 6 7 7 8 9
24 24 26 29 32 30 24 13 3 -6 -13 -18 -17 -14 -7 2 11 20 24 24 14 7 5 6 9 10 9 5 4 5 7 8 8 8 7 7 7 7 7 7 7 7 7 7 7 7 7 7 7 7 7 7 6 6 6 6 6 5 5 5 6 6 6 7 8 8 9 9 10
16 20 23 24 22 16 8 2 -4 -9 -11 -9 -4 2 7 12 15 18 20 18 12 7 5 6 8 8 6 4 3 4 5 7 8 8 8 7 7 7 7 7 7 8 8 8 8 8 7 7 7 7 7 7 7 6 6 6 6 6 6 6 7 7 8 8 9 9 10 10 11
5 7 8 10 8 4 1 -1 -2 -2 -1 3 8 12 15 17 16 15 14 14 12 9 7 7 7 6 5 4 4 4 5 7 7 8 8 8 8 8 8 9 9 9 9 9 8 8 8 8 7 7 7 7 7 7 6 6 7 7 7 7 8 8 9 9 9 10 11 12 13
2 2 3 3 2 0 -1 -1 1 4 6 9 12 15 18 18 16 13 11 11 10 9 8 7 7 6 6 5 5 5 6 7 7 7 8 8 8 8 9 9 9 9 9 9 9 8 8 8 7 7 7 7 7 7 7 7 7 7 7 8 8 9 10 10 11 12 13 14 15
0 1 2 2 1 0 1 3 7 10 11 11 11 13 14 16 14 12 9 8 9 9 8 8 7 7 7 6 6 6 7 7 7 7 8 8 8 8 8 9 9 9 9 8 8 8 8 7 7 7 7 7 7 7 7 7 7 8 8 8 9 10 12 13 14 15 15 15 14
-0 0 1 3 2 2 4 8 13 15 13 9 7 7 9 13 12 10 7 5 7 8 8 8 8 7 7 6 6 7 7 8 8 8 8 8 8 8 8 8 8 8 8 7 7 7 7 7 7 7 7 7 7 7 7 7 8 8 10 11 12 13 15 16 16 16 15 13 12
3 3 3 2 1 2 4 10 17 18 13 5 2 2 5 9 10 8 6 4 5 7 8 8 8 7 7 6 6 7 7 7 8 8 8 8 8 8 7 7 7 7 7 7 7 7 7 7 7 7 7 7 7 7 8 8 9 11 13 15 16 16 16 15 14 13 12 9 7
Height
2983 2985 2988 2991 2993 2996 2998 3000 3003 3004 3007 3009 3010 3013 3014 3017 3019 3021 3023 3024 3026 3028 3030 3032 3034 3037 3039 3039 3040 3041 3042 3043 3044 3045 3047 3049 3050 3051 3052 3053 3054 3056 3057 3059 3060 3062 3063 3064 3065 3066 3067 3067 3068 3069 3070 3072 3073 3074 3075 3075 3076 3077 3078 3079 3080 3080 3081 3082 3083
2982 2984 2987 2989 2992 2994 2997 2999 3001 3003 3005 3007 3009 3011 3013 3015 3017 3019 3021 3023 3024 3026 3029 3031 3033 3035 3037 3038 3039 3039 3040 3042 3043 3045 3047 3048 3049 3049 3050 3052 3053 3055 3056 3057 3059 3060 3062 3063 3064 3064 3065 3066 3067 3068 3069 3070 3072 3073 3074 3074 3075 3076 3077 3078 3079 3079 3080 3081 3082
2981 2984 2986 2988 2991 2993 2995 2998 2999 3001 3003 3005 3007 3009 3011 3014 3016 3018 3019 3021 3023 3025 3027 3029 3032 3034 3035 3036 3037 3038 3039 3040 3042 3044 3045 3046 3046 3048 3049 3050 3052 3054 3055 3056 3058 3059 3061 3062 3063 3064 3064 3065 3066 3067 3068 3069 3070 3071 3072 3073 3074 3075 3076 3077 3078 3078 3079 3080 3080
2981 2983 2985 2987 2990 2992 2994 2996 2998 3000 3002 3004 3006 3008 3010 3012 3014 3016 3018 3019 3021 3023 3025 3028 3030 3032 3033 3034 3035 3036 3037 3039 3041 3043 3044 3044 3045 3046 3048 3049 3051 3052 3054 3055 3057 3058 3059 3060 3062 3062 3063 3064 3065 3066 3067 3068 3069 3070 3071 3072 3073 3074 3075 3075 3076 3077 3078 3079 3079
2980 2982 2984 2987 2989 2991 2993 2995 2997 2999 3001 3003 3005 3007 3009 3011 3013 3014 3016 3017 3019 3022 3024 3026 3028 3030 3031 3033 3034 3035 3036 3038 3040 3042 3043 3043 3043 3044 3046 3048 3050 3051 3052 3054 3056 3057 3059 3059 3060 3061 3062 3063 3064 3065 3066 3067 3068 3069 3070 3071 3072 3073 3074 3074 3075 3076 3077 3077 3078
2980 2982 2984 2986 2988 2990 2992 2994 2996 2998 2999 3001 3004 3005 3007 3009 3011 3012 3014 3016 3018 3020 3023 3025 3026 3028 3030 3031 3032 3034 3035 3037 3039 3041 3041 3041 3042 3044 3046 3049 3049 3050 3051 3053 3055 3056 3058 3059 3059 3060 3061 3062 3063 3064 3065 3066 3067 3068 3069 3070 3071 3072 3072 3073 3074 3075 3075 3076 3077
2979 2981 2983 2985 2987 2989 2991 2993 2994 2996 2998 3000 3002 3004 3006 3008 3009 3011 3013 3015 3017 3019 3021 3023 3025 3027 3029 3030 3031 3033 3034 3036 3038 3039 3040 3040 3041 3043 3045 3047 3047 3048 3051 3053 3054 3056 3057 3058 3059 3059 3061 3062 3063 3064 3064 3065 3066 3067 3068 3069 3069 3070 3071 3072 3073 3074 3074 3075 3076
2979 2980 2982 2984 2986 2988 2990 2992 2994 2995 2997 2999 3001 3003 3004 3006 3008 3010 3012 3014 3016 3018 3020 3022 3024 3026 3028 3029 3030 3032 3034 3036 3037 3038 3039 3040 3041 3042 3043 3044 3046 3048 3050 3053 3054 3055 3056 3057 3058 3059 3060 3061 3062 3063 3064 3064 3065 3066 3067 3068 3069 3069 3070 3071 3072 3073 3074 3074 3075
2978 2980 2981 2984 2985 2987 2989 2991 2993 2994 2996 2998 2999 3001 3004 3005 3007 3009 3011 3014 3015 3017 3019 3022 3024 3025 3027 3028 3030 3032 3034 3034 3036 3037 3038 3039 3040 3041 3042 3043 3046 3048 3051 3052 3053 3054 3055 3056 3057 3058 3059 3060 3061 3062 3063 3064 3064 3065 3066 3066 3067 3068 3069 3070 3071 3072 3073 3074 3074
2978 2979 2981 2982 2984 2986 2988 2990 2991 2993 2995 2997 2999 3000 3003 3005 3007 3009 3011 3013 3015 3017 3019 3021 3023 3024 3026 3028 3029 3031 3033 3034 3035 3036 3037 3038 3039 3040 3041 3044 3046 3049 3050 3052 3053 3054 3054 3055 3056 3057 3058 3059 3060 3061 3062 3062 3063 3064 3064 3065 3066 3067 3068 3069 3070 3071 3072 3073 3074
2978 2979 2980 2982 2983 2985 2987 2989 2990 2992 2994 2996 2998 3000 3002 3004 3006 3009 3011 3013 3015 3017 3019 3021 3022 3024 3026 3028 3029 3030 3032 3033 3034 3035 3036 3037 3039 3040 3042 3044 3047 3049 3050 3051 3052 3053 3054 3054 3055 3056 3057 3058 3059 3060 3060 3061 3062 3063 3064 3064 3065 3066 3067 3068 3069 3070 3071 3072 3073
2978 2979 2980 2981 2983 2985 2986 2988 2990 2992 2994 2996 2998 3000 3002 3004 3006 3009 3011 3013 3014 3017 3019 3020 3022 3024 3025 3027 3029 3030 3031 3032 3033 3034 3035 3037 3039 3040 3042 3045 3047 3049 3050 3051 3051 3052 3053 3053 3054 3055 3056 3057 3058 3059 3059 3060 3061 3061 3062 3063 3064 3065 3066 3067 3068 3069 3070 3071 3072
2978 2979 2980 2982 2983 2985 2986 2988 2990 2992 2994 2996 2998 3000 3002 3004 3006 3009 3011 3013 3014 3016 3018 3020 3022 3023 3025 3027 3028 3029 3030 3031 3032 3034 3036 3038 3039 3041 3042 3045 3047 3048 3049 3050 3050 3051 3052 3052 3053 3054 3054 3055 3056 3057 3058 3059 3059 3060 3061 3062 3063 3064 3065 3066 3067 3068 3069 3070 3070
2979 2979 2981 2982 2984 2985 2987 2989 2991 2993 2994 2996 2998 3000 3003 3005 3007 3009 3011 3013 3014 3016 3018 3020 3021 3023 3025 3026 3027 3028 3029 3030 3032 3035 3037 3038 3040 3041 3043 3045 3047 3048 3048 3049 3049 3050 3050 3051 3052 3053 3053 3054 3054 3055 3056 3057 3058 3059 3060 3061 3062 3063 3064 3065 3067 3067 3068 3069 3069
2979 2980 2981 2983 2984 2986 2988 2989 2991 2993 2995 2997 2999 3001 3003 3005 3007 3009 3011 3013 3014 3016 3018 3020 3022 3023 3024 3025 3026 3027 3028 3030 3033 3035 3037 3038 3040 3041 3043 3044 3045 3046 3047 3048 3048 3049 3049 3050 3050 3051 3052 3052 3053 3054 3055 3056 3057 3058 3059 3060 3061 3063 3064 3065 3066 3066 3067 3068 3069
2979 2981 2982 2984 2985 2986 2988 2990 2992 2994 2996 2998 3000 3002 3004 3005 3007 3009 3011 3013 3014 3016 3018 3020 3022 3023 3024 3024 3025 3026 3028 3030 3032 3034 3036 3038 3039 3041 3042 3044 3044 3045 3046 3046 3047 3047 3048 3049 3049 3050 3050 3051 3052 3053 3054 3055 3056 3057 3058 3059 3061 3062 3063 3064 3065 3065 3066 3067 3068
2979 2981 2983 2984 2985 2987 2989 2991 2993 2995 2997 2999 3001 3003 3004 3006 3008 3009 3011 3013 3014 3016 3018 3020 3021 3022 3022 3023 3025 3026 3028 3030 3032 3034 3036 3037 3039 3040 3041 3042 3043 3044 3044 3045 3046 3046 3047 3047 3048 3049 3049 3050 3051 3052 3053 3054 3055 3057 3058 3059 3060 3061 3062 3063 3064 3065 3066 3066 3067
2980 2982 2984 2985 2986 2988 2990 2992 2994 2996 2998 3000 3002 3003 3005 3006 3008 3009 3011 3013 3015 3017 3018 3019 3020 3021 3022 3023 3025 3027 3028 3029 3032 3034 3035 3037 3038 3039 3040 3041 3042 3043 3043 3044 3044 3045 3046 3046 3047 3048 3048 3049 3050 3051 3053 3054 3055 3056 3058 3059 3060 3061 3062 3063 3064 3064 3065 3066 3067
2980 2982 2984 2985 2987 2989 2991 2993 2995 2997 2999 3000 3002 3004 3005 3006 3008 3009 3011 3013 3015 3016 3018 3018 3019 3020 3022 3023 3025 3027 3028 3030 3032 3034 3035 3036 3038 3039 3039 3040 3041 3042 3042 3043 3044 3044 3045 3045 3046 3047 3048 3049 3050 3051 3053 3054 3055 3056 3057 3058 3059 3060 3061 3062 3063 3064 3065 3065 3066
2981 2983 2984 2986 2988 2990 2992 2994 2996 2997 2999 3001 3002 3004 3005 3007 3009 3010 3011 3013 3015 3016 3017 3017 3019 3020 3021 3023 3025 3027 3029 3031 3032 3034 3035 3036 3037 3038 3039 3039 3040 3041 3041 3042 3043 3043 3044 3045 3046 3047 3048 3049 3050 3051 3052 3054 3054 3056 3057 3058 3059 3060 3061 3062 3063 3064 3064 3065 3066
2983 2984 2986 2988 2990 2992 2994 2995 2996 2998 2999 3001 3002 3004 3005 3007 3009 3010 3012 3013 3014 3015 3016 3017 3018 3020 3021 3023 3025 3027 3029 3031 3032 3033 3034 3035 3036 3037 3038 3038 3039 3040 3040 3041 3042 3043 3044 3044 3046 3047 3048 3049 3050 3051 3052 3053 3054 3055 3056 3057 3058 3059 3060 3061 3062 3063 3064 3064 3065
2984 2986 2988 2989 2991 2993 2994 2996 2997 2999 3000 3001 3002 3004 3006 3007 3009 3010 3012 3013 3013 3014 3015 3017 3018 3019 3021 3024 3026 3028 3029 3031 3032 3033 3033 3034 3035 3036 3037 3038 3038 3039 3040 3041 3041 3042 3044 3044 3045 3047 3048 3049 3049 3050 3051 3053 3054 3055 3056 3057 3058 3059 3060 3060 3061 3062 3063 3064 3064
2986 2988 2989 2991 2993 2994 2995 2996 2998 2999 3000 3002 3003 3005 3006 3007 3009 3010 3010 3011 3012 3013 3014 3016 3018 3020 3022 3024 3026 3028 3029 3030 3031 3032 3033 3034 3034 3035 3036 3037 3038 3038 3039 3040 3041 3042 3043 3044 3045 3046 3047 3048 3049 3050 3051 3052 3053 3054 3055 3056 3057 3058 3059 3060 3061 3062 3062 3063 3064
2987 2989 2990 2992 2993 2994 2996 2997 2998 3000 3001 3003 3004 3005 3005 3006 3007 3008 3009 3010 3012 3013 3014 3016 3018 3020 3022 3024 3027 3028 3029 3030 3030 3031 3032 3033 3034 3034 3035 3036 3037 3038 3039 3039 3041 3042 3043 3044 3045 3046 3047 3048 3049 3050 3051 3052 3053 3054 3055 3056 3057 3058 3059 3059 3060 3061 3062 3063 3063
2988 2990 2991 2993 2994 2995 2996 2997 2999 3000 3001 3003 3004 3004 3004 3005 3006 3007 3009 3011 3012 3013 3014 3016 3019 3021 3023 3025 3027 3028 3029 3029 3030 3030 3031 3032 3033 3034 3034 3035 3036 3037 3038 3039 3040 3041 3042 3043 3044 3045 3046 3047 3049 3049 3051 3052 3053 3054 3054 3055 3056 3057 3058 3059 3060 3061 3061 3062 3062
2989 2991 2992 2993 2994 2995 2996 2998 2999 3001 3002 3003 3003 3002 3003 3004 3006 3008 3010 3011 3012 3014 3015 3017 3020 3022 3024 3025 3026 3027 3028 3029 3029 3030 3031 3031 3032 3033 3034 3035 3036 3037 3038 3039 3040 3041 3042 3043 3044 3045 3046 3047 3049 3049 3050 3051 3052 3053 3054 3055 3056 3057 3058 3058 3059 3060 3060 3061 3061
2990 2992 2993 2994 2995 2995 2996 2998 3000 3001 3002 3002 3002 3002 3004 3005 3008 3009 3011 3012 3013 3014 3017 3019 3021 3023 3024 3025 3026 3027 3027 3028 3029 3029 3030 3031 3032 3033 3034 3034 3035 3036 3038 3039 3040 3041 3042 3043 3044 3045 3046 3047 3049 3049 3050 3051 3052 3053 3054 3055 3055 3056 3057 3058 3058 3059 3059 3060 3060
2991 2993 2994 2994 2995 2996 2997 2998 3000 3001 3002 3002 3003 3004 3005 3007 3009 3010 3012 3013 3014 3016 3019 3020 3022 3023 3024 3025 3025 3026 3027 3028 3029 3029 3030 3031 3032 3033 3034 3034 3035 3036 3038 3039 3040 3041 3042 3043 3044 3045 3046 3047 3048 3049 3050 3051 3052 3053 3054 3054 3055 3056 3056 3057 3058 3058 3059 3059 3059
2992 2993 2994 2995 2996 2997 2998 2999 3000 3001 3001 3002 3004 3005 3007 3008 3010 3011 3013 3014 3016 3018 3019 3021 3022 3023 3024 3024 3025 3026 3027 3027 3028 3029 3030 3030 3031 3032 3034 3034 3035 3037 3038 3039 3040 3041 3042 3043 3044 3045 3046 3047 3048 3049 3050 3051 3052 3053 3053 3054 3054 3055 3056 3056 3057 3057 3057 3057 3058
2992 2993 2994 2995 2996 2998 2999 2999 3000 3001 3002 3003 3005 3006 3008 3009 3011 3012 3014 3016 3018 3019 3020 3021 3022 3023 3023 3024 3025 3026 3026 3027 3028 3029 3030 3032 3034 3034 3033 3035 3035 3037 3038 3039 3040 3041 3042 3043 3044 3045 3046 3047 3048 3049 3049 3050 3051 3052 3053 3053 3054 3054 3055 3055 3056 3056 3056 3056 3056
2993 2994 2995 2997 2998 2999 2999 2999 3000 3001 3002 3004 3005 3007 3008 3010 3012 3014 3016 3017 3019 3019 3020 3021 3022 3023 3023 3024 3025 3025 3026 3027 3028 3029 3030 3032 3034 3035 3034 3035 3036 3037 3038 3039 3040 3041 3042 3043 3044 3044 3045 3046 3047 3048 3049 3050 3051 3051 3052 3053 3053 3054 3054 3054 3055 3055 3055 3055 3055
2994 2995 2996 2998 2998 2999 2999 2999 3000 3001 3003 3004 3006 3007 3009 3011 3014 3015 3017 3018 3019 3020 3021 3022 3022 3023 3023 3024 3025 3026 3027 3028 3028 3029 3030 3031 3032 3033 3034 3035 3036 3037 3038 3039 3040 3041 3042 3042 3043 3044 3045 3046 3047 3048 3049 3049 3050 3051 3051 3052 3052 3053 3053 3054 3054 3054 3054 3054 3054
2995 2996 2997 2998 2998 2999 2999 3000 3001 3002 3004 3006 3008 3009 3011 3014 3015 3017 3018 3018 3019 3020 3021 3022 3022 3023 3024 3024 3025 3026 3027 3028 3029 3029 3030 3031 3032 3033 3034 3035 3036 3037 3038 3039 3040 3041 3042 3043 3043 3044 3045 3046 3047 3048 3049 3049 3050 3050 3051 3051 3052 3052 3052 3053 3053 3053 3053 3053 3053
2996 2997 2997 2998 2999 3000 3001 3002 3004 3005 3007 3009 3010 3012 3013 3015 3016 3017 3018 3018 3019 3020 3021 3022 3022 3023 3024 3025 3025 3026 3027 3028 3029 3030 3031 3032 3033 3034 3034 3035 3036 3037 3038 3039 3040 3041 3042 3043 3044 3044 3045 3046 3047 3048 3048 3049 3049 3049 3050 3050 3051 3051 3051 3051 3052 3052 3052 3052 3051
2997 2997 2998 2999 3000 3002 3003 3005 3006 3008 3009 3011 3012 3013 3014 3015 3016 3017 3018 3019 3020 3020 3021 3022 3022 3023 3024 3025 3026 3027 3027 3028 3029 3030 3031 3032 3033 3034 3035 3035 3037 3038 3038 3039 3040 3041 3042 3043 3044 3044 3045 3046 3046 3047 3047 3048 3048 3049 3049 3049 3049 3050 3050 3050 3050 3050 3050 3050 3050
2997 2998 2999 3000 3002 3004 3006 3007 3009 3010 3011 3012 3013 3014 3015 3016 3017 3017 3018 3019 3020 3020 3021 3022 3022 3023 3024 3026 3027 3027 3028 3029 3029 3030 3031 3032 3033 3034 3035 3036 3037 3038 3039 3039 3040 3041 3042 3043 3043 3044 3044 3045 3045 3046 3046 3047 3047 3048 3048 3048 3049 3049 3049 3049 3049 3049 3049 3049 3049
2999 2999 3001 3002 3004 3005 3007 3009 3010 3011 3012 3013 3014 3015 3016 3016 3017 3018 3018 3019 3019 3020 3021 3022 3023 3024 3024 3025 3026 3027 3028 3029 3030 3031 3032 3033 3034 3034 3035 3036 3037 3038 3039 3039 3040 3041 3041 3042 3043 3043 3044 3044 3045 3045 3046 3046 3046 3047 3047 3047 3048 3048 3048 3048 3048 3048 3048 3048 3047
3001 3002 3004 3005 3006 3008 3009 3010 3011 3012 3013 3014 3014 3015 3016 3017 3017 3018 3019 3019 3020 3021 3021 3022 3023 3024 3025 3026 3026 3027 3028 3029 3030 3031 3032 3033 3034 3034 3035 3036 3037 3038 3038 3039 3040 3040 3041 3041 3042 3043 3043 3044 3044 3044 3045 3045 3045 3046 3046 3046 3046 3047 3047 3047 3047 3047 3047 3046 3046
3005 3005 3006 3007 3008 3009 3010 3011 3012 3013 3013 3014 3014 3015 3016 3017 3018 3018 3019 3019 3020 3021 3022 3023 3023 3024 3025 3026 3027 3028 3029 3029 3030 3031 3032 3033 3034 3034 3035 3036 3037 3037 3038 3039 3039 3039 3040 3041 3041 3042 3042 3043 3043 3044 3044 3044 3044 3045 3045 3045 3045 3045 3045 3045 3045 3045 3045 3045 3045
3007 3008 3009 3009 3010 3011 3011 3012 3013 3013 3014 3014 3015 3015 3016 3017 3018 3018 3019 3019 3020 3021 3022 3023 3024 3024 3025 3026 3027 3028 3029 3030 3031 3031 3032 3033 3034 3034 3035 3035 3036 3037 3037 3038 3039 3039 3040 3040 3041 3041 3042 3042 3043 3043 3043 3044 3044 3044 3044 3044 3044 3044 3044 3044 3044 3044 3044 3044 3044
3009 3009 3010 3011 3011 3012 3012 3013 3014 3014 3015 3015 3016 3016 3017 3018 3019 3019 3020 3020 3021 3022 3023 3023 3024 3025 3026 3027 3028 3028 3029 3030 3031 3031 3032 3033 3034 3034 3034 3035 3035 3036 3037 3038 3038 3039 3039 3040 3040 3041 3041 3042 3042 3042 3042 3043 3043 3043 3043 3043 3043 3043 3043 3043 3043 3044 3044 3044 3043